Date,TemperatureHighF,TemperatureAvgF,TemperatureLowF,DewpointHighF,DewpointAvgF,DewpointLowF,HumidityHigh,HumidityAvg,HumidityLow,PressureMaxIn,PressureMinIn,WindSpeedMaxMPH,WindSpeedAvgMPH,GustSpeedMaxMPH,PrecipitationSumIn
2013-9-1,80.4,73.0,67.4,72.1,68.9,66.2,97,87,71,29.81,29.73,9,2,11,0.00
2013-9-2,75.1,68.1,59.4,68.5,62.4,54.2,97,83,62,29.97,29.74,11,2,15,0.09
2013-9-3,71.0,61.8,54.1,58.2,55.1,51.5,94,80,62,30.08,29.96,10,1,11,0.00
2013-9-4,77.4,64.7,53.1,61.2,56.1,52.0,97,77,42,30.13,30.05,12,2,19,0.01
2013-9-5,77.9,65.2,55.8,58.5,53.4,41.8,95,69,28,30.24,30.11,7,1,13,0.00
2013-9-6,79.9,65.4,51.4,64.7,54.7,46.7,85,70,50,30.26,30.05,5,1,11,0.00
2013-9-7,85.2,71.2,62.0,67.9,62.8,55.9,92,76,51,30.05,29.90,11,2,15,0.04
2013-9-8,74.5,69.6,63.5,66.7,64.6,62.3,97,85,72,30.03,29.93,9,2,16,0.00
2013-9-9,89.6,75.4,64.0,74.5,66.5,57.1,84,74,60,30.00,29.84,9,3,15,0.00
2013-9-10,93.6,82.2,72.1,71.9,68.0,63.3,90,65,37,30.01,29.88,12,4,20,0.00
2013-9-11,92.5,76.9,69.5,71.5,69.4,66.2,94,79,43,30.03,29.93,10,3,22,0.07
2013-9-12,79.1,69.7,58.8,67.6,59.7,52.0,96,73,42,30.02,29.88,8,2,13,0.01
2013-9-13,62.3,56.0,46.6,51.1,45.0,41.8,88,68,50,30.15,30.03,10,2,16,0.00
2013-9-14,68.3,54.0,39.3,46.6,41.7,38.0,97,67,37,30.22,30.08,6,1,11,0.00
2013-9-15,61.3,55.9,52.1,56.5,48.5,39.4,94,77,54,30.14,30.03,5,1,12,0.03
2013-9-16,67.9,57.7,50.2,53.8,50.5,45.9,96,79,48,30.34,30.14,5,1,11,0.01
2013-9-17,68.8,56.9,44.6,50.8,47.1,42.7,94,72,46,30.38,30.18,8,2,13,0.00
2013-9-18,78.7,66.1,55.7,63.7,55.4,46.2,90,69,54,30.18,29.96,10,2,14,0.06
2013-9-19,73.2,67.2,64.3,68.8,65.4,62.8,97,94,86,30.03,29.85,11,3,22,1.59
2013-9-20,73.8,69.7,61.6,70.4,66.2,55.7,95,89,80,29.86,29.75,10,4,17,0.54
2013-9-21,63.6,58.7,49.5,56.8,52.1,46.9,93,80,63,29.91,29.75,15,3,21,0.02
2013-9-22,63.0,54.3,45.9,50.6,46.9,43.4,96,77,54,30.07,29.91,7,1,15,0.00
2013-9-23,66.9,53.3,39.8,48.7,44.7,38.7,96,75,50,30.16,30.08,10,2,15,0.00
2013-9-24,67.9,56.5,45.1,49.8,46.5,42.6,92,71,47,30.12,29.96,10,3,16,0.00
2013-9-25,72.3,58.5,46.8,55.9,49.5,44.4,95,74,47,29.99,29.93,7,1,10,0.00
2013-9-26,76.6,60.6,46.9,54.4,49.1,45.5,96,70,35,30.10,29.97,8,1,11,0.00
2013-9-27,77.7,63.7,48.6,54.2,49.6,43.7,84,62,38,30.20,30.10,13,2,14,0.00
2013-9-28,79.0,66.1,52.0,58.7,54.5,50.0,93,68,44,30.14,29.95,10,3,16,0.00
2013-9-29,70.3,61.3,48.2,60.0,54.6,46.6,96,80,64,30.01,29.92,10,2,17,0.01
2013-9-30,72.2,57.1,43.4,54.9,49.3,42.3,98,78,45,30.03,29.92,9,1,14,0.01